Location: Newark
(35.2161°N, 26.1013°E)
Time: 11:24:15
(UTC+00:00)

BEESAT 2 - Pass Details

Date: 24 January 2020
Orbit: 493 x 534 km, 64.9° (Epoch: 25 February)

Event Time Altitude Azimuth Distance (km) Brightness Sun altitude
Exits shadow 02:56:06 - 27° (NNE) 1,846 ? -29.4°
Reaches altitude 10° 02:56:40 10° 34° (NE) 1,788 ? -29.3°
Maximum altitude 02:57:29 11° 46° (NE) 1,754 ? -29.1°
Drops below altitude 10° 02:58:18 10° 58° (ENE) 1,785 ? -28.9°
Sets 03:02:22 0° 99° (E) 2,663 ? -28.1°
